Regional Weather Roundup
Issued by NWS

Home | Current Version | Previous Version | Graphics & Text | Print | Product List | Glossary On
Versions: 1 2 3 4 5 6 7 8 9 10 11 12 13 14 15 16 17 18 19 20 21 22 23 24 25 26 27 28 29 30 31 32 33 34 35 36 37 38 39 40 41 42 43 44 45 46 47 48 49 50
000
ASUS43 KBIS 242110
RWRND

NORTH DAKOTA REGIONAL WEATHER ROUNDUP
NATIONAL WEATHER SERVICE BISMARCK ND
400 PM CDT TUE MAY 24 2016

NOTE: "FAIR" INDICATES FEW OR NO CLOUDS BELOW 12,000 FEET WITH NO
SIGNIFICANT WEATHER AND/OR OBSTRUCTIONS TO VISIBILITY.


NDZ001>003-009>011-017-242200-
NORTHWEST NORTH DAKOTA

CITY           SKY/WX    TMP DP  RH WIND       PRES   REMARKS
WILLISTON      CLOUDY    70  37  29 SW15G21   29.88S
MINOT          PTSUNNY   75  39  27 SW8       29.88S
MINOT AFB      MOSUNNY   72  40  31 SW9       29.87S
$$

NDZ018>021-031>035-040>046-242200-
SOUTHWEST NORTH DAKOTA

CITY           SKY/WX    TMP DP  RH WIND       PRES   REMARKS
BISMARCK       SUNNY     76  41  28 CALM      29.87F
DICKINSON      PTSUNNY   72  36  26 S6G16     29.87F
GARRISON         N/A     74  44  34 W12G17    29.89S
HETTINGER ARPT SUNNY     72  40  31 MISG      29.89F
$$

NDZ004>008-012>016-024-026-027-054-242200-
NORTHEAST NORTH DAKOTA

CITY           SKY/WX    TMP DP  RH WIND       PRES   REMARKS
GRAND FORKS    MOSUNNY   79  50  36 VRB3      29.87S
GRND FRKS AFB  SUNNY     76  48  37 NW3       29.88S
DEVILS LAKE    SUNNY     76  45  33 SE8       29.89S
$$

NDZ022-023-025-028>030-036>039-047>053-242200-
SOUTHEAST NORTH DAKOTA

CITY           SKY/WX    TMP DP  RH WIND       PRES   REMARKS
FARGO          SUNNY     84  45  25 MISG      29.85R
JAMESTOWN      SUNNY     77  50  38 SE6       29.88S
$$





USA.gov is the U.S. government's official web portal to all federal, state and local government web resources and services.